Location: Luna
(33.8188°N, 108.9564°W)
Time: 21:35:19
(UTC+00:00)

STARLINK-1258 - Visible Passes

Search period start: 29 November 2023 00:00
Search period end: 09 December 2023 00:00
Orbit: 546 x 548 km, 53.1° (Epoch: 29 November)

Date Brightness Start Highest point End Pass type
(mag) Time Alt. Az. Time Alt. Az. Time Alt. Az.
29 Nov 6.0 00:59:04 10° WNW 01:01:38 16° NNW 01:04:13 10° N visible
30 Nov 6.1 00:53:30 10° NW 00:55:24 13° NNW 00:57:20 10° N visible
01 Dec 6.2 00:48:30 10° NW 00:49:19 10° NNW 00:50:10 10° NNW visible
